Regional Weather Roundup
Issued by NWS

Home | Current Version | Previous Version | Graphics & Text | Print | Product List | Glossary On
Versions: 1 2 3 4 5 6 7 8 9 10 11 12 13 14 15 16 17 18 19 20 21 22 23 24 25 26 27 28 29 30 31 32 33 34 35 36 37 38 39 40 41 42 43 44 45 46 47 48 49 50
000
ASUS43 KDMX 240807
RWRIA

WEATHER ROUNDUP FOR IOWA
NATIONAL WEATHER SERVICE DES MOINES IA
300 AM CDT SUN MAY 24 2015

NOTE: "FAIR" INDICATES FEW OR NO CLOUDS BELOW 12,000 FEET WITH NO
SIGNIFICANT WEATHER AND/OR OBSTRUCTIONS TO VISIBILITY.

* - THESE STATIONS ARE NOT NWS STATIONS...THUS NOT UNDER NWS
QUALITY CONTROL.  THEY ALSO DO NOT REPORT WEATHER SUCH
AS PRECIPITATION OR FOG.

IAZ001>003-012>014-020>022-031>034-043>046-240900-
   NORTHWEST IOWA

CITY           SKY/WX    TMP DP  RH WIND       PRES   REMARKS
CARROLL *      LGT RAIN  61  59  94 SE8       30.04F
CHEROKEE *     DRIZZLE   59  59 100 E3        30.04F
DENISON *      CLOUDY    59  59 100 SE6       30.01F FOG
LE MARS *      LGT RAIN  59  59 100 NE7       30.04F
ORANGE CITY *  LGT RAIN  57  57 100 E6        30.04F
SHELDON *      LGT RAIN  59 N/A N/A E7        30.05S
SIOUX CITY     LGT RAIN  61  58  90 E9        30.00F
SPENCER        LGT RAIN  61  58  90 SE9       30.07F
STORM LAKE *   CLOUDY    59  59 100 SE9       30.06F FOG
$$

IAZ055>058-069>071-079>083-090>094-240900-
   SOUTHWEST IOWA

CITY           SKY/WX    TMP DP  RH WIND       PRES   REMARKS
ATLANTIC *     CLOUDY    61  59  94 E3        30.01F
AUDUBON *      RAIN      59  55  88 CALM      30.05F
CLARINDA *     CLOUDY    61  61 100 E8        29.95F
COUNCIL BLFS * CLOUDY    59  59 100 NE10      29.97F FOG
CRESTON *      CLOUDY    59  59 100 SE14G22   30.01F
HARLAN  *      DRIZZLE   59  59 100 NE7       30.04F
LAMONI         LGT RAIN  61  58  90 SE10G20   30.03F
RED OAK *      HVY RAIN  61  61 100 E7        29.97F
SHENANDOAH *   CLOUDY    61  61 100 E9        29.95F
$$

IAZ047>049-059>061-072>074-084-240900-
   CENTRAL IOWA

CITY           SKY/WX    TMP DP  RH WIND       PRES   REMARKS
AMES           CLOUDY    64  53  67 SE7       30.06F
ANKENY *       LGT RAIN  63  57  82 SE7G14    30.06S
CHARITON *     RAIN      59  57  94 SE12      30.05F
DES MOINES     LGT RAIN  63  56  78 SE12      30.06S
GRINNELL*      CLOUDY    64  54  68 SE7       30.09F
KNOXVILLE *    LGT RAIN  63  55  77 S12       30.07S
MARSHALLTOWN   CLOUDY    63  53  70 SE8       30.08F
PELLA *        RAIN      64  59  82 S14G21    30.09S
PERRY *        RAIN      61  55  82 SE7       30.05S
$$

IAZ004>006-015-016-023>025-035-036-240900-
   NORTH CENTRAL IOWA

CITY           SKY/WX    TMP DP  RH WIND       PRES   REMARKS
ALGONA *       DRIZZLE   63  57  82 S13       30.09S
CLARION *      CLOUDY    64  54  68 SE10G16   30.08S
ESTHERVILLE    CLOUDY    61  52  72 E9        30.07F
FORT DODGE *   CLOUDY    61  54  77 E6        30.07F
MASON CITY     CLOUDY    63  52  67 E6        30.11S
FOREST CITY *  CLOUDY    61  54  77 NE3       30.10S
IOWA FALLS *   CLOUDY    64  52  63 SE9       30.09S
$$

IAZ007>011-017>019-026>030-037>042-050>054-066-240900-
   NORTHEAST IOWA

CITY           SKY/WX    TMP DP  RH WIND       PRES   REMARKS
CEDAR RAPIDS   CLOUDY    65  51  60 SE5       30.11S
CHARLES CITY * CLOUDY    63  50  63 E6        30.12S
CLINTON *      CLOUDY    64  50  59 SE6       30.17S
DECORAH *      CLOUDY    63  50  63 SE6       30.13S
DUBUQUE        CLOUDY    62  50  64 SE8       30.16R
MONTICELLO *   CLOUDY    64  50  59 SE5       30.13S
OELWEIN *      CLOUDY    63  50  63 SE9       30.12F
WATERLOO       CLOUDY    64  50  60 SE7       30.10F
$$

IAZ064-065-067-068-078-240900-
   EAST CENTRAL IOWA

CITY           SKY/WX    TMP DP  RH WIND       PRES   REMARKS
DAVENPORT      CLOUDY    67  48  50 SE7       30.15S
IOWA CITY      CLOUDY    65  52  62 SE9       30.13S
MT. PLEASANT * CLOUDY    63  54  72 SE6       30.12F
MUSCATINE *    CLOUDY    64  55  72 S7        30.14R
QUAD CITIES    LGT RAIN  66  51  58 VRB7      30.13F
$$

IAZ062-063-075>077-085>089-095>099-240900-
   SOUTHEAST IOWA

CITY           SKY/WX    TMP DP  RH WIND       PRES   REMARKS
BURLINGTON     CLOUDY    68  52  56 SE7       30.12F
FAIRFIELD *    CLOUDY    63  55  77 S6        30.11R
FORT MADISON * CLOUDY    66  54  63 SE6       30.13S
KEOKUK *       CLOUDY    66  54  63 S5        30.12S
OSKALOOSA *    LGT RAIN  61  55  82 S15       30.10S
CENTERVILLE *  LGT RAIN  57  57 100 SE9       30.09F
OTTUMWA        LGT RAIN  62  57  83 S14       30.10R
WASHINGTON *   CLOUDY    64  52  63 S7        30.14R
$$

ABBREVIATIONS USED IN REMARKS
   TC - TEMPERATURES IN CELSIUS
  WCI - WIND CHILL INDEX
   HX - HEAT INDEX
  VSB - VISIBILITY
$$




USA.gov is the U.S. government's official web portal to all federal, state and local government web resources and services.